Location: Poigny-la-Forêt
(48.6876°N, 1.7701°E)
Time: 22:36:43
(UTC+02:00)

ISS - Pass Details

Date: 23 May 2019
Orbit: 407 x 418 km, 51.6° (Epoch: 25 June)

Event Time Altitude Azimuth Distance (km) Brightness Sun altitude
Rises 00:09:51 0° 277° (W) 2,358 0.5 -17.3°
Reaches altitude 10° 00:12:00 10° 283° (WNW) 1,497 -0.5 -17.5°
Maximum altitude 00:15:16 48° 359° (N) 554 -2.8 -17.7°
Drops below altitude 10° 00:18:33 10° 76° (ENE) 1,504 -1.0 -17.9°
Enters shadow 00:19:05 - 78° (ENE) 1,715 -0.8 -17.9°
